Regional Weather Roundup
Issued by NWS

Home | Current Version | Previous Version | Graphics & Text | Print | Product List | Glossary On
Versions: 1 2 3 4 5 6 7 8 9 10 11 12 13 14 15 16 17 18 19 20 21 22 23 24 25 26 27
000
ASUS45 KSLC 270010
RWRUT

UTAH REGIONAL WEATHER ROUNDUP
NATIONAL WEATHER SERVICE SALT LAKE CITY UT
600 PM MDT THU MAY 26 2016

UTZ001>011-023>025-270100-

NORTHERN UTAH

CITY           SKY/WX    TMP DP  RH WIND       PRES   REMARKS
BRIGHAM CITY     N/A     68  34  28 N9        29.93S
HILL AFB       MOSUNNY   67  37  32 NW9G20    29.94F
LOGAN          MOSUNNY   63  46  54 N6        29.93F
OGDEN          PTSUNNY   67  36  31 N13       29.92F
PROVO AIRPORT  PTSUNNY   66  36  32 NW15      29.93S
SALT LAKE CITY MOSUNNY   70  34  26 W6G16     29.92F
VERNAL         CLOUDY    65  30  27 E6        29.89F
WENDOVER       PTSUNNY   68  34  28 W8        29.96S
HEBER CITY     CLOUDY    54  37  54 E8        29.99R
WEST JORDAN    SUNNY     66  36  32 NW6       29.96S

$$

UTZ012>022-026-027-270100-

SOUTHERN/CENTRAL UTAH

CITY           SKY/WX    TMP DP  RH WIND       PRES   REMARKS
BLANDING       CLOUDY    63  26  24 NE20G28   29.98R
BRYCE CANYON   PTSUNNY   50  31  48 NW21      30.07S
CEDAR CITY     PTSUNNY   59  35  40 SW8       30.00S
DELTA          CLOUDY    64  32  29 E12       29.94S
HANKSVILLE     CLOUDY    66  32  28 W24G33    29.92S
MILFORD        PTSUNNY   67  30  25 E5        29.94S
MOAB/CYNLANDS  CLOUDY    68  31  25 NW22G32   29.83S
PRICE          CLOUDY    58  32  37 NW20G25   29.97F
ST GEORGE      CLOUDY    73  39  29 NE13      29.93S
KANAB          PTSUNNY   64  36  34 W12       30.02F

$$

REGIONAL REPORTS     COLORADO/ARIZONA

CITY           SKY/WX    TMP DP  RH WIND       PRES   REMARKS
CRAIG, CO      CLOUDY    61  29  29 W14G23    29.89R
GRAND JUNCTION CLOUDY    68  25  19 VRB5      29.82F
RIFLE          CLOUDY    60  33  36 W12       29.88R
MONTROSE       MOSUNNY   62  32  32 SE16      29.89F
CORTEZ         CLOUDY    57  32  38 E6        29.93S
PAGE, AZ       MOSUNNY   71  31  22 W7G16     29.90F
GRAND CANYON   CLOUDY    56  30  37 N12G17    30.06R
KINGMAN        CLOUDY    77  23  13 SW13G22   29.92F
FLAGSTAFF      CLOUDY    51  30  44 W9G17     30.07R

$$

REGIONAL REPORTS    NEVADA/IDAHO/WYOMING

CITY           SKY/WX    TMP DP  RH WIND       PRES   REMARKS
LAS VEGAS, NV  MOSUNNY   82  31  15 W8        29.81F
ELY            MOSUNNY   58  33  39 N13       30.04F
ELKO           CLOUDY    59  39  47 E7        30.02F
POCATELLO, ID  MOSUNNY   69  36  29 W9        29.94F
BURLEY         MOSUNNY   68  41  37 SW10      29.93F
EVANSTON, WY   CLOUDY    53  33  46 W13       30.02S
ROCK SPRINGS   CLOUDY    62  26  25 N9        29.93F
KEMMERER         N/A     54  34  47 CALM      30.00F

$$




USA.gov is the U.S. government's official web portal to all federal, state and local government web resources and services.